SCP
0 0 0 0 0 0 0 0 0 0 0 0 0 0 0 0 0 0 0 -0 -0 -1 -0 0 1 1 1 0 1 1 1 0 0 0 0 0 0 0 0 1 1 1 1
0 0 0 0 0 0 0 0 0 0 0 0 0 0 0 0 0 0 0 0 0 0 0 0 0 1 1 1 1 1 0 0 0 0 0 0 0 1 0 1 1 2 1
0 0 0 0 0 0 0 0 0 0 0 0 0 0 0 0 0 0 0 0 0 0 0 0 1 1 1 1 1 1 0 0 0 0 0 0 0 0 0 1 1 1 1
0 0 0 0 0 0 0 0 0 0 0 0 0 0 0 0 0 0 0 -0 -0 -0 -0 0 1 1 1 1 2 1 1 0 0 0 0 0 0 1 1 0 0 0 0
0 0 0 0 0 0 0 0 0 0 0 0 0 0 0 0 0 0 0 0 -0 -0 -0 0 0 0 1 1 1 1 0 0 0 0 0 0 0 0 0 0 0 0 0
0 0 0 0 0 0 0 0 0 0 0 0 0 0 0 0 0 0 0 0 0 0 -0 -0 0 0 0 0 1 0 0 0 0 0 0 0 0 0 0 0 0 0 0
0 0 0 0 0 0 0 0 0 0 0 0 0 0 0 0 0 0 0 0 0 0 0 0 0 0 0 1 1 0 0 0 1 1 1 0 0 0 0 0 0 0 0
0 0 0 0 0 0 0 0 0 0 0 0 0 0 -0 0 0 0 0 0 0 0 0 0 0 0 0 0 0 1 1 1 1 1 1 1 0 0 0 0 0 0 0
0 0 0 0 0 0 0 0 -0 -0 -0 -0 -0 -0 0 0 0 0 0 0 0 0 0 0 0 0 0 0 0 0 0 1 1 1 1 1 1 1 0 0 0 0 0
0 0 0 0 0 0 0 0 0 0 0 0 0 0 -0 -0 0 0 0 0 0 0 0 0 0 0 0 0 0 1 1 0 1 1 0 0 1 1 0 0 0 0 0
0 0 0 0 0 0 0 0 0 0 0 0 0 0 0 0 0 0 0 0 0 0 0 0 0 0 0 0 0 0 1 0 0 0 0 0 0 0 0 0 0 0 0
0 0 0 0 0 0 0 0 0 0 0 0 0 0 0 0 0 0 0 0 0 0 0 0 0 0 0 0 0 0 0 0 0 0 0 0 0 0 0 0 0 0 0
0 0 0 0 0 0 0 0 0 0 0 0 0 0 0 0 0 0 0 0 0 0 0 0 0 0 0 0 0 0 0 0 0 0 0 0 0 0 0 0 0 0 0
0 0 0 0 0 0 0 0 0 0 0 0 0 0 0 0 0 0 0 0 0 0 0 0 0 0 0 0 0 0 0 0 0 0 0 0 0 0 0 0 0 0 0
0 0 0 0 0 0 0 0 0 0 0 0 0 0 0 0 0 0 0 0 0 0 0 0 0 0 0 0 0 0 0 0 0 0 0 0 0 0 0 0 0 0 0
0 0 0 0 0 0 0 0 0 0 0 0 0 0 0 0 0 0 0 0 0 0 0 0 0 0 0 0 0 0 0 0 0 0 0 0 0 0 0 0 0 0 0
0 0 0 0 0 0 0 0 0 0 0 0 0 0 0 0 0 0 0 0 0 0 0 0 0 -0 0 0 0 0 0 0 0 0 0 0 0 0 0 0 0 0 0
0 0 0 0 0 0 0 0 0 0 0 0 0 0 0 0 0 0 0 0 0 0 0 0 0 0 0 0 0 0 0 0 0 0 0 0 0 0 0 0 0 0 0
0 0 0 0 0 0 0 0 0 0 0 0 0 0 0 0 0 0 0 0 0 0 0 0 0 0 0 0 0 0 0 0 0 0 0 0 0 -0 -0 -0 -0 0 0
0 0 0 0 0 0 0 0 0 0 0 0 0 0 0 0 0 0 0 0 0 0 0 0 0 0 0 0 0 0 0 0 0 0 0 0 0 -0 -0 0 0 0 0
0 0 0 0 0 0 0 0 0 0 0 0 0 0 0 0 0 0 0 0 0 0 0 0 0 0 0 0 0 0 0 0 0 0 0 0 0 -0 -0 -0 -0 -0 0
0 0 0 0 0 0 0 0 0 0 0 0 0 0 0 0 0 0 0 0 0 0 0 0 0 0 0 0 0 0 0 0 0 0 0 0 0 -0 -0 0 0 0 -0
-0 0 0 0 0 0 0 0 0 0 0 0 -0 -0 0 0 0 0 0 0 0 0 0 0 0 0 0 0 -0 -0 -0 -0 0 0 0 -0 -0 -0 -0 0 0 0 0
0 0 0 0 -0 -0 0 -0 0 0 0 0 0 0 0 -0 0 0 0 0 0 0 0 0 0 0 0 0 0 -0 -0 -0 -0 -0 0 -0 -0 -0 0 0 0 -0 -0
0 0 0 -0 -0 -0 0 0 0 0 0 0 0 0 0 0 0 0 0 0 0 0 0 0 0 0 0 0 -0 -0 0 -0 0 -0 0 0 0 0 0 0 0 -0 -0
-0 0 -0 -0 0 0 0 0 0 0 0 0 0 0 0 0 0 0 0 0 0 0 0 0 0 0 -0 -0 -0 -0 -0 -0 -0 0 0 0 0 0 0 0 -0 -0 -0
Wind_Speed_500mb
1 8 13 25 33 49 46 33 25 33 27 22 21 18 19 24 30 39 47 54 58 59 59 56 56 55 64 67 70 73 82 79 71 74 72 66 64 66 64 62 58 63 66
35 33 31 26 21 24 20 20 15 13 7 7 14 21 30 40 45 48 52 55 61 67 65 52 51 56 60 64 68 81 94 87 78 82 76 67 69 73 72 66 67 62 69
44 41 39 37 32 28 21 14 9 9 16 21 26 30 34 36 40 41 42 44 49 52 53 54 48 49 56 56 63 64 78 84 93 89 83 26 42 64 75 76 75 73 72
41 36 31 29 25 23 19 18 19 17 14 13 18 22 28 36 42 47 47 47 51 50 50 49 48 47 52 53 50 60 70 75 87 80 76 71 60 34 52 56 76 79 76
36 35 32 29 26 21 15 13 9 5 1 8 15 21 25 30 39 44 47 52 50 52 53 47 40 39 45 59 58 50 60 70 68 63 57 60 75 85 84 69 62 69 82
29 26 22 19 18 12 7 1 5 11 18 24 32 39 42 42 42 42 42 49 57 57 56 52 43 34 34 47 58 59 60 60 69 72 62 79 74 84 72 82 54 55 65
11 5 7 12 16 19 23 27 27 30 34 41 54 57 56 53 55 55 57 51 46 46 54 58 54 48 42 45 48 60 61 66 65 63 65 64 81 85 88 59 29 45 54
11 10 14 15 20 26 30 35 41 47 55 63 71 73 64 61 61 60 62 56 52 47 47 47 50 49 49 48 51 54 55 50 50 55 55 61 73 80 108 106 79 59 52
13 12 12 15 21 27 34 42 48 56 66 79 85 82 75 70 73 73 72 70 52 51 48 47 50 51 49 51 47 41 42 47 50 54 55 61 72 68 69 79 85 76 42
22 18 17 16 18 25 35 42 50 64 79 78 78 78 79 79 77 73 68 73 60 49 48 45 44 53 54 49 45 39 42 45 47 47 52 51 56 63 66 72 78 93 88
20 18 18 21 31 39 48 58 68 69 66 66 72 76 74 72 69 64 61 64 57 49 53 53 47 52 56 54 43 35 36 46 46 44 47 45 49 54 61 65 66 67 89
17 16 24 36 45 53 60 65 66 68 65 63 68 73 77 78 75 65 55 56 50 42 47 54 50 48 50 54 45 36 33 39 40 41 38 38 43 51 58 63 63 76 79
21 29 42 50 56 60 63 67 64 57 63 75 79 80 76 73 70 59 49 46 39 38 35 35 32 43 45 47 39 27 33 36 40 33 25 21 27 36 42 52 64 78 83
40 54 64 63 66 66 73 71 73 73 77 66 74 81 76 68 55 48 41 41 31 34 29 25 30 36 41 38 29 23 29 30 25 15 11 11 12 20 28 33 40 52 66
59 67 62 65 69 75 80 71 72 71 60 67 82 77 60 52 43 40 36 35 28 26 18 20 31 37 36 27 23 24 23 16 8 5 0 7 8 9 9 11 17 28 38
64 62 63 69 73 80 76 70 71 61 61 66 55 60 56 47 41 37 34 32 22 10 4 18 32 34 30 18 14 19 21 16 6 8 8 12 15 18 17 22 26 28 42
59 66 66 75 83 86 75 66 62 70 76 71 62 58 49 45 35 38 37 26 17 7 8 26 29 25 16 10 20 23 25 17 16 17 19 28 33 43 55 56 50 45 38
60 65 74 82 84 80 69 69 83 82 73 66 61 54 46 42 39 44 28 16 13 11 19 23 19 20 2 10 22 24 25 28 31 34 38 39 42 41 42 44 43 53 50
72 80 87 82 79 84 96 101 89 65 61 61 50 45 48 55 44 30 15 10 10 17 16 12 8 5 17 22 26 28 27 37 46 50 49 51 56 56 51 48 50 47 43
76 75 72 85 100 99 68 68 66 53 51 52 53 52 26 23 28 20 6 12 20 15 9 8 12 21 34 34 31 28 34 53 59 59 62 63 64 58 36 36 37 43 42
71 94 94 77 72 64 57 54 49 47 44 41 42 40 35 32 26 14 15 17 21 19 14 17 31 32 34 32 34 37 40 50 61 63 63 58 51 41 39 33 35 39 36
84 73 67 69 68 62 55 51 48 39 32 32 34 26 32 30 21 13 31 24 26 26 35 44 46 39 39 43 48 48 53 62 64 66 59 52 46 38 37 31 31 30 26
68 63 63 66 66 59 48 45 34 25 22 21 25 24 23 16 16 43 36 37 38 48 54 46 51 49 46 49 50 58 62 63 66 63 55 48 43 44 38 32 29 27 22
59 56 61 61 55 50 19 15 14 17 18 22 21 5 30 46 53 44 45 43 61 61 58 47 58 62 62 62 62 62 60 61 63 60 57 50 41 35 38 28 23 23 21
51 54 44 42 34 28 31 26 26 32 33 19 38 57 55 56 58 57 52 57 53 53 51 54 60 68 74 71 63 63 61 58 52 49 44 41 39 37 33 29 26 27 27
44 36 34 31 32 36 40 35 29 35 47 60 56 55 56 56 55 56 60 48 49 48 44 45 52 69 70 69 63 60 49 43 40 48 41 36 34 33 30 28 28 24 23
Wind_Direction_500mb
195 203 252 258 239 233 247 250 207 205 216 206 197 210 236 259 282 299 305 306 307 306 300 291 282 281 275 281 272 271 266 263 259 266 263 260 259 258 254 253 254 245 240
101 98 101 107 119 136 148 140 138 141 178 264 290 295 297 303 307 306 306 306 301 296 296 293 286 270 273 275 275 263 262 263 261 254 261 266 260 257 258 261 257 255 248
91 89 93 93 95 93 87 91 68 12 346 335 327 320 315 311 312 312 313 318 319 317 309 287 287 280 274 278 271 273 261 264 262 258 244 245 244 258 255 256 254 250 249
90 88 88 90 92 92 88 74 66 45 24 360 336 321 320 319 313 312 313 318 317 317 316 304 288 286 272 273 280 279 266 264 259 254 235 241 244 267 252 253 247 246 244
92 90 85 90 91 92 88 90 85 85 16 321 311 310 307 310 311 310 307 310 314 320 327 315 292 289 273 269 285 280 274 269 263 268 258 256 248 251 260 257 246 241 240
84 83 83 85 87 97 123 142 295 307 309 313 314 310 306 296 289 290 296 303 308 311 317 325 305 285 291 279 279 280 280 272 275 273 259 261 250 243 244 242 243 248 246
107 81 14 354 338 327 320 314 315 316 315 316 315 315 307 299 292 289 291 291 294 301 308 313 315 292 282 284 282 282 280 279 281 278 278 272 250 252 249 267 269 268 245
336 316 313 311 311 306 303 305 305 312 316 319 318 316 311 301 292 291 291 291 287 291 300 301 304 298 291 283 285 284 282 283 281 282 280 276 270 264 262 260 253 242 237
279 273 270 276 284 295 302 306 310 315 317 313 310 308 309 307 301 294 285 288 287 285 289 293 300 298 296 289 280 280 277 278 280 275 270 266 263 259 256 255 254 229 228
260 261 248 260 285 303 301 303 306 310 313 307 303 302 304 306 302 296 290 285 283 282 282 284 294 299 292 294 285 279 274 270 273 275 270 267 264 262 260 256 256 239 244
249 225 245 275 294 305 312 313 314 312 305 299 300 299 299 302 308 298 289 289 283 273 276 279 284 296 296 285 290 274 272 270 276 286 282 272 265 259 261 253 251 238 239
223 252 290 301 304 306 306 306 305 302 298 296 297 296 297 299 299 299 294 291 289 267 273 276 280 291 296 283 290 269 281 280 274 275 276 268 255 249 250 246 248 230 229
280 293 309 309 307 307 307 310 303 295 293 297 294 296 296 299 298 293 295 292 283 266 272 279 289 290 292 287 289 273 276 272 268 267 273 271 275 264 264 260 234 226 225
303 311 313 309 311 312 309 303 299 296 302 292 295 299 299 298 294 288 292 298 271 273 271 279 293 293 301 283 286 258 266 264 262 267 286 294 294 290 280 265 249 233 228
307 311 311 310 310 307 307 300 299 305 295 292 295 298 299 301 294 287 288 295 274 284 271 298 291 290 295 280 274 244 246 239 219 288 316 67 31 6 325 286 224 196 176
303 306 305 304 303 306 304 296 299 294 294 297 294 295 300 299 297 293 284 295 279 284 295 286 288 294 287 267 237 234 202 179 153 121 80 78 93 92 101 110 115 125 136
292 293 295 300 306 311 306 297 288 289 293 291 287 287 296 288 297 292 284 291 275 256 261 271 281 297 292 220 192 174 163 153 126 98 112 112 105 115 113 107 104 101 100
292 294 299 305 306 305 296 289 288 289 287 282 281 279 282 277 284 283 280 270 273 233 257 269 288 300 116 166 173 168 143 120 110 110 111 114 114 112 109 104 98 90 89
302 301 304 302 297 295 291 290 291 290 286 277 265 264 275 277 280 276 272 263 232 219 241 249 296 263 142 156 150 144 126 123 115 112 115 118 111 92 87 101 107 110 108
304 300 297 296 292 293 295 289 282 278 265 267 267 275 262 251 253 232 260 267 203 210 203 173 157 147 138 147 145 144 142 129 124 119 113 107 103 99 108 117 118 115 114
304 304 301 298 295 297 295 290 286 278 276 273 266 255 248 242 227 196 244 228 205 177 151 136 129 125 133 143 152 149 143 140 133 128 120 112 109 115 118 117 112 109 108
310 311 311 309 306 302 295 286 281 277 272 262 255 234 223 217 196 243 194 198 177 162 139 133 123 124 134 148 151 147 143 140 136 127 124 123 123 124 116 113 110 118 112
320 322 319 316 311 305 290 276 270 258 241 243 211 203 179 188 184 186 185 168 166 154 134 121 125 124 131 134 136 135 134 131 125 123 120 122 122 122 124 108 110 127 111
327 331 332 330 335 329 253 225 199 189 190 177 154 137 141 154 167 175 171 165 154 142 127 131 131 131 130 131 132 130 129 126 122 117 116 117 114 117 122 130 112 104 97
339 343 344 3 23 61 101 118 127 132 133 126 139 146 155 159 161 158 153 147 144 139 132 139 140 139 134 135 136 134 129 126 124 123 113 112 120 126 123 116 103 98 100
350 359 23 46 62 78 91 99 114 128 135 138 146 149 148 151 151 145 138 140 142 138 137 141 140 131 131 134 135 126 118 112 115 111 116 115 117 116 115 114 109 100 89
Wind_Speed_850mb
1 8 13 25 33 49 46 33 25 33 27 22 21 18 19 24 30 39 47 54 58 59 59 56 56 55 64 67 70 73 82 79 71 74 72 66 64 66 64 62 58 63 66
35 33 31 26 21 24 20 20 15 13 7 7 14 21 30 40 45 48 52 55 61 67 65 52 51 56 60 64 68 81 94 87 78 82 76 67 69 73 72 66 67 62 69
44 41 39 37 32 28 21 14 9 9 16 21 26 30 34 36 40 41 42 44 49 52 53 54 48 49 56 56 63 64 78 84 93 89 83 26 42 64 75 76 75 73 72
41 36 31 29 25 23 19 18 19 17 14 13 18 22 28 36 42 47 47 47 51 50 50 49 48 47 52 53 50 60 70 75 87 80 76 71 60 34 52 56 76 79 76
36 35 32 29 26 21 15 13 9 5 1 8 15 21 25 30 39 44 47 52 50 52 53 47 40 39 45 59 58 50 60 70 68 63 57 60 75 85 84 69 62 69 82
29 26 22 19 18 12 7 1 5 11 18 24 32 39 42 42 42 42 42 49 57 57 56 52 43 34 34 47 58 59 60 60 69 72 62 79 74 84 72 82 54 55 65
11 5 7 12 16 19 23 27 27 30 34 41 54 57 56 53 55 55 57 51 46 46 54 58 54 48 42 45 48 60 61 66 65 63 65 64 81 85 88 59 29 45 54
11 10 14 15 20 26 30 35 41 47 55 63 71 73 64 61 61 60 62 56 52 47 47 47 50 49 49 48 51 54 55 50 50 55 55 61 73 80 108 106 79 59 52
13 12 12 15 21 27 34 42 48 56 66 79 85 82 75 70 73 73 72 70 52 51 48 47 50 51 49 51 47 41 42 47 50 54 55 61 72 68 69 79 85 76 42
22 18 17 16 18 25 35 42 50 64 79 78 78 78 79 79 77 73 68 73 60 49 48 45 44 53 54 49 45 39 42 45 47 47 52 51 56 63 66 72 78 93 88
20 18 18 21 31 39 48 58 68 69 66 66 72 76 74 72 69 64 61 64 57 49 53 53 47 52 56 54 43 35 36 46 46 44 47 45 49 54 61 65 66 67 89
17 16 24 36 45 53 60 65 66 68 65 63 68 73 77 78 75 65 55 56 50 42 47 54 50 48 50 54 45 36 33 39 40 41 38 38 43 51 58 63 63 76 79
21 29 42 50 56 60 63 67 64 57 63 75 79 80 76 73 70 59 49 46 39 38 35 35 32 43 45 47 39 27 33 36 40 33 25 21 27 36 42 52 64 78 83
40 54 64 63 66 66 73 71 73 73 77 66 74 81 76 68 55 48 41 41 31 34 29 25 30 36 41 38 29 23 29 30 25 15 11 11 12 20 28 33 40 52 66
59 67 62 65 69 75 80 71 72 71 60 67 82 77 60 52 43 40 36 35 28 26 18 20 31 37 36 27 23 24 23 16 8 5 0 7 8 9 9 11 17 28 38
64 62 63 69 73 80 76 70 71 61 61 66 55 60 56 47 41 37 34 32 22 10 4 18 32 34 30 18 14 19 21 16 6 8 8 12 15 18 17 22 26 28 42
59 66 66 75 83 86 75 66 62 70 76 71 62 58 49 45 35 38 37 26 17 7 8 26 29 25 16 10 20 23 25 17 16 17 19 28 33 43 55 56 50 45 38
60 65 74 82 84 80 69 69 83 82 73 66 61 54 46 42 39 44 28 16 13 11 19 23 19 20 2 10 22 24 25 28 31 34 38 39 42 41 42 44 43 53 50
72 80 87 82 79 84 96 101 89 65 61 61 50 45 48 55 44 30 15 10 10 17 16 12 8 5 17 22 26 28 27 37 46 50 49 51 56 56 51 48 50 47 43
76 75 72 85 100 99 68 68 66 53 51 52 53 52 26 23 28 20 6 12 20 15 9 8 12 21 34 34 31 28 34 53 59 59 62 63 64 58 36 36 37 43 42
71 94 94 77 72 64 57 54 49 47 44 41 42 40 35 32 26 14 15 17 21 19 14 17 31 32 34 32 34 37 40 50 61 63 63 58 51 41 39 33 35 39 36
84 73 67 69 68 62 55 51 48 39 32 32 34 26 32 30 21 13 31 24 26 26 35 44 46 39 39 43 48 48 53 62 64 66 59 52 46 38 37 31 31 30 26
68 63 63 66 66 59 48 45 34 25 22 21 25 24 23 16 16 43 36 37 38 48 54 46 51 49 46 49 50 58 62 63 66 63 55 48 43 44 38 32 29 27 22
59 56 61 61 55 50 19 15 14 17 18 22 21 5 30 46 53 44 45 43 61 61 58 47 58 62 62 62 62 62 60 61 63 60 57 50 41 35 38 28 23 23 21
51 54 44 42 34 28 31 26 26 32 33 19 38 57 55 56 58 57 52 57 53 53 51 54 60 68 74 71 63 63 61 58 52 49 44 41 39 37 33 29 26 27 27
44 36 34 31 32 36 40 35 29 35 47 60 56 55 56 56 55 56 60 48 49 48 44 45 52 69 70 69 63 60 49 43 40 48 41 36 34 33 30 28 28 24 23
Wind_Direction_850mb
195 203 252 258 239 233 247 250 207 205 216 206 197 210 236 259 282 299 305 306 307 306 300 291 282 281 275 281 272 271 266 263 259 266 263 260 259 258 254 253 254 245 240
101 98 101 107 119 136 148 140 138 141 178 264 290 295 297 303 307 306 306 306 301 296 296 293 286 270 273 275 275 263 262 263 261 254 261 266 260 257 258 261 257 255 248
91 89 93 93 95 93 87 91 68 12 346 335 327 320 315 311 312 312 313 318 319 317 309 287 287 280 274 278 271 273 261 264 262 258 244 245 244 258 255 256 254 250 249
90 88 88 90 92 92 88 74 66 45 24 360 336 321 320 319 313 312 313 318 317 317 316 304 288 286 272 273 280 279 266 264 259 254 235 241 244 267 252 253 247 246 244
92 90 85 90 91 92 88 90 85 85 16 321 311 310 307 310 311 310 307 310 314 320 327 315 292 289 273 269 285 280 274 269 263 268 258 256 248 251 260 257 246 241 240
84 83 83 85 87 97 123 142 295 307 309 313 314 310 306 296 289 290 296 303 308 311 317 325 305 285 291 279 279 280 280 272 275 273 259 261 250 243 244 242 243 248 246
107 81 14 354 338 327 320 314 315 316 315 316 315 315 307 299 292 289 291 291 294 301 308 313 315 292 282 284 282 282 280 279 281 278 278 272 250 252 249 267 269 268 245
336 316 313 311 311 306 303 305 305 312 316 319 318 316 311 301 292 291 291 291 287 291 300 301 304 298 291 283 285 284 282 283 281 282 280 276 270 264 262 260 253 242 237
279 273 270 276 284 295 302 306 310 315 317 313 310 308 309 307 301 294 285 288 287 285 289 293 300 298 296 289 280 280 277 278 280 275 270 266 263 259 256 255 254 229 228
260 261 248 260 285 303 301 303 306 310 313 307 303 302 304 306 302 296 290 285 283 282 282 284 294 299 292 294 285 279 274 270 273 275 270 267 264 262 260 256 256 239 244
249 225 245 275 294 305 312 313 314 312 305 299 300 299 299 302 308 298 289 289 283 273 276 279 284 296 296 285 290 274 272 270 276 286 282 272 265 259 261 253 251 238 239
223 252 290 301 304 306 306 306 305 302 298 296 297 296 297 299 299 299 294 291 289 267 273 276 280 291 296 283 290 269 281 280 274 275 276 268 255 249 250 246 248 230 229
280 293 309 309 307 307 307 310 303 295 293 297 294 296 296 299 298 293 295 292 283 266 272 279 289 290 292 287 289 273 276 272 268 267 273 271 275 264 264 260 234 226 225
303 311 313 309 311 312 309 303 299 296 302 292 295 299 299 298 294 288 292 298 271 273 271 279 293 293 301 283 286 258 266 264 262 267 286 294 294 290 280 265 249 233 228
307 311 311 310 310 307 307 300 299 305 295 292 295 298 299 301 294 287 288 295 274 284 271 298 291 290 295 280 274 244 246 239 219 288 316 67 31 6 325 286 224 196 176
303 306 305 304 303 306 304 296 299 294 294 297 294 295 300 299 297 293 284 295 279 284 295 286 288 294 287 267 237 234 202 179 153 121 80 78 93 92 101 110 115 125 136
292 293 295 300 306 311 306 297 288 289 293 291 287 287 296 288 297 292 284 291 275 256 261 271 281 297 292 220 192 174 163 153 126 98 112 112 105 115 113 107 104 101 100
292 294 299 305 306 305 296 289 288 289 287 282 281 279 282 277 284 283 280 270 273 233 257 269 288 300 116 166 173 168 143 120 110 110 111 114 114 112 109 104 98 90 89
302 301 304 302 297 295 291 290 291 290 286 277 265 264 275 277 280 276 272 263 232 219 241 249 296 263 142 156 150 144 126 123 115 112 115 118 111 92 87 101 107 110 108
304 300 297 296 292 293 295 289 282 278 265 267 267 275 262 251 253 232 260 267 203 210 203 173 157 147 138 147 145 144 142 129 124 119 113 107 103 99 108 117 118 115 114
304 304 301 298 295 297 295 290 286 278 276 273 266 255 248 242 227 196 244 228 205 177 151 136 129 125 133 143 152 149 143 140 133 128 120 112 109 115 118 117 112 109 108
310 311 311 309 306 302 295 286 281 277 272 262 255 234 223 217 196 243 194 198 177 162 139 133 123 124 134 148 151 147 143 140 136 127 124 123 123 124 116 113 110 118 112
320 322 319 316 311 305 290 276 270 258 241 243 211 203 179 188 184 186 185 168 166 154 134 121 125 124 131 134 136 135 134 131 125 123 120 122 122 122 124 108 110 127 111
327 331 332 330 335 329 253 225 199 189 190 177 154 137 141 154 167 175 171 165 154 142 127 131 131 131 130 131 132 130 129 126 122 117 116 117 114 117 122 130 112 104 97
339 343 344 3 23 61 101 118 127 132 133 126 139 146 155 159 161 158 153 147 144 139 132 139 140 139 134 135 136 134 129 126 124 123 113 112 120 126 123 116 103 98 100
350 359 23 46 62 78 91 99 114 128 135 138 146 149 148 151 151 145 138 140 142 138 137 141 140 131 131 134 135 126 118 112 115 111 116 115 117 116 115 114 109 100 89